Flag for U.S.A. Weather past 2 weeks in Billings, Montana, U.S.A.

Now
38 °F

Passing clouds.


Feels Like: 32 °F
Forecast: 38 / 71 °F
Wind: 8 mph from Southwest

Location: Billings Logan International Airport

Current Time: Oct 25, 2014 at 7:48:12 AM

Latest Report: Oct 25, 2014 at 6:53 AM


Visibility: 10 mi

Pressure: 30.07 "Hg

Humidity: 83%

Dew point: 33 °F

Location of BillingsLocation

Historic Weather in Billings — Graph

°F

Billings temperature yesterday

Maximum temperature yesterday: 61 °F (at 12:53 AM)
Minimum temperature yesterday: 47 °F (at 11:53 PM)
Average temperature yesterday: 54 °F

Past Weeks' High & Low Weather Summary

 TemperatureHumidityPressure
High79 °F (Oct 20, 2:53 PM)90% (Oct 11, 11:53 PM)30.19 "Hg (Oct 11, 11:53 PM)
Low35 °F (Oct 17, 7:53 AM)13% (Oct 20, 2:53 PM)29.51 "Hg (Oct 15, 4:53 PM)
Average55 °F45%29.91 "Hg
* Reported Oct 10 5:53 AM — Oct 25 5:53 AM, Billings, Weather by CustomWeather, © 2014

Note: Actual official high and low records may vary slightly from our data, if they occured in-between our weather recording intervals... More about our weather records

Advertising

Billings weather history for previous 24 hours

 ConditionsComfort  
Time TempWeatherWind HumidityBarometerVisibility
5:53 AM
Oct 25
39 °FClear.12 mph79%30.07 "Hg10 mi
4:53 AM40 °FClear.7 mph80%30.08 "Hg10 mi
3:53 AM41 °FClear.7 mph76%30.09 "Hg10 mi
2:53 AM42 °FClear.3 mph71%30.10 "Hg10 mi
1:53 AM44 °FPassing clouds.6 mph68%30.10 "Hg10 mi
12:53 AM44 °FClear.6 mph68%30.09 "Hg10 mi
11:53 PM
Oct 24
47 °FClear.5 mph64%30.09 "Hg10 mi
10:53 PM49 °FClear.5 mph59%30.08 "Hg10 mi
9:53 PM49 °FPassing clouds.5 mph59%30.09 "Hg10 mi
8:53 PM51 °FPassing clouds.5 mph56%30.09 "Hg10 mi
7:53 PM53 °FPassing clouds.6 mph51%30.07 "Hg10 mi
6:53 PM53 °FBroken clouds.5 mph55%30.07 "Hg10 mi
5:53 PM56 °FPartly sunny.5 mph49%30.06 "Hg10 mi
4:53 PM57 °FOvercast.5 mph47%30.05 "Hg10 mi
3:53 PM56 °FOvercast.6 mph49%30.04 "Hg10 mi
2:53 PM57 °FOvercast.6 mph51%30.03 "Hg10 mi
1:53 PM56 °FOvercast.7 mph53%30.01 "Hg10 mi
12:53 PM55 °FOvercast.7 mph53%30.02 "Hg10 mi
11:53 AM57 °FOvercast.7 mph49%30.03 "Hg10 mi
10:53 AM57 °FOvercast.No wind47%30.01 "Hg10 mi
9:53 AM56 °FOvercast.3 mph49%30.01 "Hg10 mi
8:53 AM53 °FPartly sunny.3 mph48%30.00 "Hg10 mi
7:53 AM53 °FPassing clouds.3 mph48%29.97 "Hg10 mi
Weather by CustomWeather, © 2014

See weather overviewHow to use our weather pages